| time (UTC) | temp F | wind direction | speed MPH | gust MPH | rain 1hr in | rain 24hr in | rain mn in | humidity % | barometer mb |
| 20260506155003 | 66 | 114 | 10.0 | 18.0 | 0.00 | 0.00 | 0.00 | 81 | 1007.3 |
| 20260506154504 | 66 | 106 | 11.0 | 17.0 | 0.00 | 0.00 | 0.00 | 81 | 1007.3 |
| 20260506154003 | 66 | 106 | 11.0 | 17.0 | 0.00 | 0.00 | 0.00 | 81 | 1006.3 |
| 20260506153716 | 66 | 100 | 12.0 | 18.0 | 0.00 | 0.00 | 0.00 | 81 | 1006.3 |
| 20260506153003 | 66 | 106 | 14.0 | 21.0 | 0.00 | 0.00 | 0.00 | 81 | 1006.3 |
| 20260506152503 | 66 | 94 | 13.0 | 17.0 | 0.00 | 0.00 | 0.00 | 81 | 1006.3 |
| 20260506152003 | 66 | 85 | 13.0 | 15.0 | 0.00 | 0.00 | 0.00 | 81 | 1006.3 |
| 20260506151713 | 67 | 86 | 13.0 | 15.0 | 0.00 | 0.00 | 0.00 | 81 | 1006.3 |
| 20260506151003 | 67 | 92 | 14.0 | 17.0 | 0.00 | 0.00 | 0.00 | 80 | 1006.3 |
| 20260506150504 | 67 | 96 | 14.0 | 17.0 | 0.00 | 0.00 | 0.00 | 80 | 1006.3 |
| 20260506150003 | 67 | 95 | 14.0 | 17.0 | 0.00 | 0.00 | 0.00 | 80 | 1006.3 |
| 20260506145503 | 67 | 87 | 14.0 | 20.0 | 0.00 | 0.00 | 0.00 | 80 | 1006.3 |
| 20260506145003 | 67 | 86 | 15.0 | 20.0 | 0.00 | 0.00 | 0.00 | 79 | 1006.3 |
| 20260506144503 | 67 | 90 | 13.0 | 15.0 | 0.00 | 0.00 | 0.00 | 79 | 1006.3 |
| 20260506144003 | 67 | 90 | 12.0 | 15.0 | 0.00 | 0.00 | 0.00 | 78 | 1008.3 |
| 20260506143504 | 67 | 89 | 12.0 | 14.0 | 0.00 | 0.00 | 0.00 | 78 | 1008.3 |
| 20260506143214 | 67 | 81 | 11.0 | 17.0 | 0.00 | 0.00 | 0.00 | 77 | 1008.3 |
| 20260506142504 | 67 | 79 | 11.0 | 17.0 | 0.00 | 0.00 | 0.00 | 77 | 1008.3 |
| 20260506142004 | 67 | 92 | 11.0 | 16.0 | 0.00 | 0.00 | 0.00 | 77 | 1008.3 |
| 20260506141504 | 67 | 96 | 12.0 | 16.0 | 0.00 | 0.00 | 0.00 | 77 | 1008.3 |
| 20260506141004 | 67 | 94 | 13.0 | 15.0 | 0.00 | 0.00 | 0.00 | 76 | 1008.3 |
| 20260506140504 | 67 | 87 | 12.0 | 15.0 | 0.00 | 0.00 | 0.00 | 76 | 1008.3 |
| 20260506140004 | 68 | 84 | 12.0 | 17.0 | 0.00 | 0.00 | 0.00 | 76 | 1008.3 |
| 20260506135504 | 68 | 88 | 12.0 | 17.0 | 0.00 | 0.00 | 0.00 | 75 | 1009.3 |
| 20260506135004 | 67 | 105 | 13.0 | 14.0 | 0.00 | 0.00 | 0.00 | 75 | 1009.3 |
| 20260506134504 | 67 | 101 | 12.0 | 20.0 | 0.00 | 0.00 | 0.00 | 75 | 1009.3 |
| 20260506134004 | 68 | 89 | 11.0 | 20.0 | 0.00 | 0.00 | 0.00 | 75 | 1008.3 |
| 20260506133504 | 68 | 109 | 11.0 | 17.0 | 0.00 | 0.00 | 0.00 | 75 | 1008.3 |
| 20260506133215 | 67 | 124 | 11.0 | 17.0 | 0.00 | 0.00 | 0.00 | 74 | 1008.3 |
| 20260506132504 | 67 | 138 | 13.0 | 18.0 | 0.00 | 0.00 | 0.00 | 74 | 1009.3 |
| 20260506132004 | 67 | 138 | 13.0 | 18.0 | 0.00 | 0.00 | 0.00 | 74 | 1009.3 |
| 20260506131504 | 67 | 151 | 14.0 | 22.0 | 0.00 | 0.00 | 0.00 | 74 | 1009.3 |
| 20260506131005 | 67 | 155 | 15.0 | 22.0 | 0.00 | 0.00 | 0.00 | 73 | 1009.3 |
| 20260506130504 | 67 | 159 | 13.0 | 22.0 | 0.00 | 0.00 | 0.00 | 73 | 1009.3 |
| 20260506130004 | 68 | 143 | 11.0 | 16.0 | 0.00 | 0.00 | 0.00 | 73 | 1009.3 |
| 20260506125505 | 68 | 144 | 13.0 | 26.0 | 0.00 | 0.00 | 0.00 | 73 | 1009.3 |
| 20260506125004 | 68 | 152 | 14.0 | 26.0 | 0.00 | 0.00 | 0.00 | 72 | 1009.3 |
| 20260506124504 | 68 | 149 | 12.0 | 14.0 | 0.00 | 0.00 | 0.00 | 71 | 1009.3 |
| 20260506124004 | 68 | 154 | 13.0 | 19.0 | 0.00 | 0.00 | 0.00 | 71 | 1009.3 |
| 20260506123503 | 68 | 155 | 13.0 | 19.0 | 0.00 | 0.00 | 0.00 | 72 | 1009.3 |
| 20260506123004 | 68 | 149 | 13.0 | 23.0 | 0.00 | 0.00 | 0.00 | 71 | 1009.3 |
| 20260506122503 | 68 | 147 | 15.0 | 23.0 | 0.00 | 0.00 | 0.00 | 70 | 1009.3 |
| 20260506122003 | 68 | 148 | 16.0 | 23.0 | 0.00 | 0.00 | 0.00 | 69 | 1009.3 |
| 20260506121503 | 68 | 161 | 15.0 | 18.0 | 0.00 | 0.00 | 0.00 | 69 | 1009.3 |
| 20260506121003 | 69 | 168 | 14.0 | 18.0 | 0.00 | 0.00 | 0.00 | 68 | 1009.3 |
| 20260506120716 | 69 | 167 | 15.0 | 20.0 | 0.00 | 0.00 | 0.00 | 68 | 1009.3 |
| 20260506120004 | 69 | 156 | 16.0 | 20.0 | 0.00 | 0.00 | 0.00 | 67 | 1009.3 |
| 20260506115503 | 69 | 148 | 15.0 | 24.0 | 0.00 | 0.00 | 0.00 | 67 | 1009.3 |
| 20260506115005 | 69 | 138 | 13.0 | 24.0 | 0.00 | 0.00 | 0.00 | 67 | 1009.3 |
| 20260506114503 | 69 | 130 | 10.0 | 12.0 | 0.00 | 0.00 | 0.00 | 67 | 1009.3 |
| 20260506114003 | 69 | 132 | 9.0 | 13.0 | 0.00 | 0.00 | 0.00 | 67 | 1009.3 |
| 20260506113503 | 69 | 135 | 8.0 | 13.0 | 0.00 | 0.00 | 0.00 | 67 | 1009.3 |
| 20260506113003 | 69 | 153 | 8.0 | 17.0 | 0.00 | 0.00 | 0.00 | 67 | 1009.3 |
| 20260506112714 | 69 | 157 | 9.0 | 17.0 | 0.00 | 0.00 | 0.00 | 67 | 1009.3 |
| 20260506112217 | 69 | 157 | 9.0 | 12.0 | 0.00 | 0.00 | 0.00 | 68 | 1009.3 |
| 20260506111503 | 69 | 155 | 10.0 | 15.0 | 0.00 | 0.00 | 0.00 | 68 | 1009.3 |
| 20260506111003 | 69 | 160 | 9.0 | 17.0 | 0.00 | 0.00 | 0.00 | 67 | 1009.3 |
| 20260506110503 | 69 | 160 | 10.0 | 18.0 | 0.00 | 0.00 | 0.00 | 67 | 1009.3 |
| 20260506110003 | 69 | 157 | 10.0 | 18.0 | 0.00 | 0.00 | 0.00 | 67 | 1009.3 |
| 20260506105503 | 69 | 143 | 10.0 | 16.0 | 0.00 | 0.00 | 0.00 | 67 | 1009.3 |
| 20260506105004 | 69 | 138 | 11.0 | 16.0 | 0.00 | 0.00 | 0.00 | 67 | 1009.3 |
| 20260506104503 | 69 | 136 | 11.0 | 17.0 | 0.00 | 0.00 | 0.00 | 66 | 1009.3 |
| 20260506104004 | 69 | 142 | 11.0 | 17.0 | 0.00 | 0.00 | 0.00 | 66 | 1009.3 |
| 20260506103504 | 70 | 151 | 9.0 | 17.0 | 0.00 | 0.00 | 0.00 | 66 | 1009.3 |
| 20260506103004 | 70 | 135 | 10.0 | 15.0 | 0.00 | 0.00 | 0.00 | 66 | 1009.3 |
| 20260506102504 | 70 | 132 | 11.0 | 16.0 | 0.00 | 0.00 | 0.00 | 65 | 1009.3 |
| 20260506102004 | 70 | 132 | 13.0 | 19.0 | 0.00 | 0.00 | 0.00 | 65 | 1009.3 |
| 20260506101504 | 70 | 129 | 13.0 | 19.0 | 0.00 | 0.00 | 0.00 | 66 | 1009.3 |
| 20260506101214 | 69 | 126 | 12.0 | 19.0 | 0.00 | 0.00 | 0.00 | 66 | 1009.3 |
| 20260506100504 | 69 | 117 | 11.0 | 19.0 | 0.00 | 0.00 | 0.00 | 66 | 1009.3 |
| 20260506100004 | 70 | 123 | 11.0 | 17.0 | 0.00 | 0.00 | 0.00 | 66 | 1009.3 |
| 20260506095504 | 70 | 127 | 10.0 | 17.0 | 0.00 | 0.00 | 0.00 | 66 | 1009.3 |
| 20260506095216 | 70 | 126 | 11.0 | 18.0 | 0.00 | 0.00 | 0.00 | 67 | 1009.3 |
| 20260506094714 | 69 | 116 | 12.0 | 18.0 | 0.00 | 0.00 | 0.00 | 68 | 1009.3 |
| 20260506094004 | 69 | 107 | 12.0 | 17.0 | 0.00 | 0.00 | 0.00 | 67 | 1009.3 |
| 20260506093506 | 69 | 103 | 12.0 | 18.0 | 0.00 | 0.00 | 0.00 | 67 | 1009.3 |
| 20260506093004 | 69 | 109 | 12.0 | 18.0 | 0.00 | 0.00 | 0.00 | 67 | 1009.3 |
| 20260506092716 | 69 | 110 | 13.0 | 17.0 | 0.00 | 0.00 | 0.00 | 68 | 1009.3 |
| 20260506092004 | 69 | 111 | 12.0 | 17.0 | 0.00 | 0.00 | 0.00 | 68 | 1009.3 |
| 20260506091504 | 68 | 110 | 11.0 | 16.0 | 0.00 | 0.00 | 0.00 | 68 | 1009.3 |
| 20260506091004 | 68 | 98 | 13.0 | 20.0 | 0.00 | 0.00 | 0.00 | 68 | 1009.3 |
| 20260506090718 | 68 | 103 | 14.0 | 20.0 | 0.00 | 0.00 | 0.00 | 68 | 1009.3 |
| 20260506090215 | 69 | 104 | 13.0 | 20.0 | 0.00 | 0.00 | 0.00 | 68 | 1009.3 |
| 20260506085714 | 69 | 98 | 12.0 | 19.0 | 0.00 | 0.00 | 0.00 | 69 | 1009.3 |
| 20260506085004 | 69 | 99 | 13.0 | 18.0 | 0.00 | 0.00 | 0.00 | 70 | 1009.3 |
| 20260506084503 | 68 | 99 | 14.0 | 18.0 | 0.00 | 0.00 | 0.00 | 70 | 1009.3 |
| 20260506084003 | 68 | 97 | 12.0 | 17.0 | 0.00 | 0.00 | 0.00 | 72 | 1009.3 |
| 20260506083504 | 67 | 115 | 14.0 | 17.0 | 0.00 | 0.00 | 0.00 | 72 | 1009.3 |
| 20260506083004 | 67 | 119 | 15.0 | 17.0 | 0.00 | 0.00 | 0.00 | 72 | 1009.3 |
| 20260506082716 | 67 | 110 | 14.0 | 17.0 | 0.00 | 0.00 | 0.00 | 72 | 1009.3 |
| 20260506082004 | 67 | 113 | 13.0 | 17.0 | 0.00 | 0.00 | 0.00 | 73 | 1009.3 |
| 20260506081503 | 67 | 118 | 13.0 | 18.0 | 0.00 | 0.00 | 0.00 | 74 | 1009.3 |
| 20260506081004 | 67 | 121 | 14.0 | 21.0 | 0.00 | 0.00 | 0.00 | 73 | 1009.3 |
| 20260506080503 | 67 | 116 | 14.0 | 21.0 | 0.00 | 0.00 | 0.00 | 74 | 1009.3 |
| 20260506073003 | 66 | 116 | 13.0 | 20.0 | 0.00 | 0.00 | 0.00 | 73 | 1010.3 |
| 20260506072503 | 67 | 109 | 13.0 | 17.0 | 0.00 | 0.00 | 0.00 | 73 | 1010.3 |
| 20260506072003 | 67 | 122 | 13.0 | 17.0 | 0.00 | 0.00 | 0.00 | 73 | 1010.3 |
| 20260506071503 | 66 | 109 | 12.0 | 15.0 | 0.00 | 0.00 | 0.00 | 74 | 1010.3 |
| 20260506071003 | 67 | 102 | 11.0 | 15.0 | 0.00 | 0.00 | 0.00 | 74 | 1010.3 |
| 20260506070503 | 66 | 106 | 11.0 | 17.0 | 0.00 | 0.00 | 0.00 | 74 | 1010.3 |
| 20260506062216 | 65 | 109 | 14.0 | 18.0 | 0.00 | 0.00 | 0.00 | 77 | 1010.3 |
| 20260506061505 | 65 | 105 | 15.0 | 23.0 | 0.00 | 0.00 | 0.00 | 77 | 1010.3 |
| 20260506061004 | 65 | 108 | 14.0 | 23.0 | 0.00 | 0.00 | 0.00 | 78 | 1010.3 |
| 20260506060505 | 65 | 111 | 14.0 | 18.0 | 0.00 | 0.00 | 0.00 | 78 | 1010.3 |
| 20260506051004 | 64 | 106 | 12.0 | 18.0 | 0.00 | 0.00 | 0.00 | 86 | 1010.3 |
| 20260506050504 | 64 | 103 | 14.0 | 18.0 | 0.00 | 0.00 | 0.00 | 86 | 1010.3 |
| 20260506044504 | 64 | 105 | 16.0 | 19.0 | 0.00 | 0.00 | 0.00 | 88 | 1009.3 |
| 20260506044004 | 64 | 107 | 16.0 | 21.0 | 0.00 | 0.00 | 0.00 | 89 | 1009.3 |
| 20260506043504 | 64 | 100 | 17.0 | 21.0 | 0.00 | 0.00 | 0.00 | 89 | 1009.3 |
| 20260506043216 | 64 | 90 | 17.0 | 21.0 | 0.00 | 0.00 | 0.00 | 89 | 1009.3 |
| 20260506042714 | 64 | 94 | 16.0 | 21.0 | 0.00 | 0.00 | 0.00 | 90 | 1009.3 |
| 20260506042217 | 64 | 104 | 16.0 | 21.0 | 0.00 | 0.00 | 0.00 | 90 | 1009.3 |
| 20260506041503 | 64 | 109 | 14.0 | 20.0 | 0.00 | 0.00 | 0.00 | 91 | 1009.3 |
| 20260506041004 | 64 | 104 | 14.0 | 18.0 | 0.00 | 0.00 | 0.00 | 91 | 1010.3 |
| 20260506040716 | 64 | 107 | 13.0 | 18.0 | 0.00 | 0.00 | 0.00 | 91 | 1010.3 |
| 20260506040214 | 64 | 104 | 13.0 | 19.0 | 0.00 | 0.00 | 0.00 | 91 | 1010.3 |
| 20260506035503 | 64 | 98 | 13.0 | 20.0 | 0.00 | 0.00 | 0.00 | 91 | 1010.3 |
| 20260506035214 | 64 | 103 | 13.0 | 20.0 | 0.00 | 0.00 | 0.00 | 91 | 1010.3 |
| 20260506034503 | 64 | 121 | 12.0 | 20.0 | 0.00 | 0.00 | 0.00 | 91 | 1010.3 |
| 20260506034216 | 64 | 118 | 11.0 | 15.0 | 0.00 | 0.00 | 0.00 | 91 | 1010.3 |
| 20260506033503 | 64 | 106 | 12.0 | 19.0 | 0.00 | 0.00 | 0.00 | 91 | 1010.3 |
| 20260506033217 | 64 | 103 | 13.0 | 19.0 | 0.00 | 0.00 | 0.00 | 91 | 1010.3 |
| 20260506032503 | 64 | 117 | 10.0 | 16.0 | 0.00 | 0.00 | 0.00 | 91 | 1010.3 |
| 20260506032004 | 64 | 125 | 9.0 | 14.0 | 0.00 | 0.00 | 0.00 | 90 | 1010.3 |
| 20260506031715 | 64 | 132 | 9.0 | 12.0 | 0.00 | 0.00 | 0.00 | 90 | 1010.3 |
| 20260506031003 | 64 | 131 | 12.0 | 21.0 | 0.00 | 0.00 | 0.00 | 90 | 1010.3 |
| 20260506030716 | 64 | 126 | 13.0 | 21.0 | 0.00 | 0.00 | 0.00 | 90 | 1010.3 |
| 20260506030003 | 64 | 121 | 11.0 | 14.0 | 0.00 | 0.00 | 0.00 | 90 | 1010.3 |
| 20260506025503 | 64 | 127 | 11.0 | 16.0 | 0.00 | 0.00 | 0.00 | 90 | 1010.3 |
| 20260506025215 | 64 | 134 | 12.0 | 18.0 | 0.00 | 0.00 | 0.00 | 90 | 1010.3 |
| 20260506024503 | 64 | 136 | 14.0 | 18.0 | 0.00 | 0.00 | 0.00 | 89 | 1010.3 |
| 20260506024004 | 64 | 143 | 12.0 | 17.0 | 0.00 | 0.00 | 0.00 | 89 | 1010.3 |
| 20260506023503 | 64 | 138 | 11.0 | 17.0 | 0.00 | 0.00 | 0.00 | 89 | 1010.3 |
| 20260506023004 | 64 | 121 | 12.0 | 17.0 | 0.00 | 0.00 | 0.00 | 89 | 1010.3 |
| 20260506022505 | 64 | 120 | 12.0 | 18.0 | 0.00 | 0.00 | 0.00 | 89 | 1010.3 |
| 20260506022004 | 64 | 126 | 11.0 | 18.0 | 0.00 | 0.00 | 0.00 | 89 | 1010.3 |
| 20260506021504 | 64 | 114 | 10.0 | 14.0 | 0.00 | 0.00 | 0.00 | 89 | 1010.3 |
| 20260506021006 | 64 | 109 | 11.0 | 17.0 | 0.00 | 0.00 | 0.00 | 89 | 1010.3 |
| 20260506020504 | 64 | 125 | 9.0 | 17.0 | 0.00 | 0.00 | 0.00 | 89 | 1010.3 |
| 20260506020004 | 64 | 109 | 10.0 | 15.0 | 0.00 | 0.00 | 0.00 | 88 | 1010.3 |
| 20260506015504 | 64 | 120 | 13.0 | 18.0 | 0.00 | 0.00 | 0.00 | 88 | 1010.3 |
| 20260506015004 | 64 | 139 | 13.0 | 18.0 | 0.00 | 0.00 | 0.00 | 88 | 1010.3 |
| 20260506014714 | 64 | 136 | 12.0 | 17.0 | 0.00 | 0.00 | 0.00 | 88 | 1010.3 |
| 20260506014004 | 65 | 146 | 12.0 | 18.0 | 0.00 | 0.00 | 0.00 | 88 | 1010.3 |
| 20260506013715 | 65 | 149 | 12.0 | 18.0 | 0.00 | 0.00 | 0.00 | 88 | 1010.3 |
| 20260506013004 | 65 | 143 | 11.0 | 14.0 | 0.00 | 0.00 | 0.00 | 88 | 1010.3 |
| 20260506012504 | 65 | 154 | 9.0 | 13.0 | 0.00 | 0.00 | 0.00 | 88 | 1010.3 |
| 20260506012004 | 65 | 163 | 9.0 | 12.0 | 0.00 | 0.00 | 0.00 | 88 | 1010.3 |
| 20260506011504 | 65 | 143 | 9.0 | 15.0 | 0.00 | 0.00 | 0.00 | 88 | 1010.3 |
| 20260506011004 | 64 | 135 | 10.0 | 15.0 | 0.00 | 0.00 | 0.00 | 88 | 1009.3 |
| 20260506010718 | 64 | 124 | 11.0 | 16.0 | 0.00 | 0.00 | 0.00 | 88 | 1009.3 |
| 20260506010004 | 64 | 102 | 14.0 | 18.0 | 0.00 | 0.00 | 0.00 | 88 | 1009.3 |
| 20260506005504 | 64 | 90 | 15.0 | 21.0 | 0.00 | 0.00 | 0.00 | 88 | 1009.3 |
| 20260506005003 | 64 | 88 | 15.0 | 21.0 | 0.00 | 0.00 | 0.00 | 88 | 1009.3 |
| 20260506004504 | 64 | 105 | 15.0 | 23.0 | 0.00 | 0.00 | 0.00 | 89 | 1009.3 |
| 20260506004003 | 64 | 104 | 16.0 | 23.0 | 0.00 | 0.00 | 0.00 | 89 | 1009.3 |
| 20260506003503 | 64 | 106 | 19.0 | 27.0 | 0.00 | 0.00 | 0.00 | 89 | 1009.3 |
| 20260506003003 | 64 | 104 | 19.0 | 27.0 | 0.00 | 0.00 | 0.00 | 89 | 1009.3 |
| 20260506002503 | 64 | 92 | 18.0 | 23.0 | 0.00 | 0.00 | 0.00 | 89 | 1009.3 |
| 20260506002003 | 65 | 96 | 18.0 | 24.0 | 0.00 | 0.00 | 0.00 | 88 | 1009.3 |
| 20260506001504 | 65 | 108 | 19.0 | 24.0 | 0.00 | 0.00 | 0.00 | 88 | 1009.3 |
| 20260506001003 | 65 | 114 | 19.0 | 24.0 | 0.00 | 0.00 | 0.00 | 88 | 1010.3 |
| 20260506000504 | 65 | 116 | 17.0 | 24.0 | 0.00 | 0.00 | 0.00 | 88 | 1010.3 |
| 20260506000003 | 65 | 109 | 17.0 | 25.0 | 0.00 | 0.00 | 0.00 | 88 | 1010.3 |
| 20260505235505 | 65 | 111 | 16.0 | 25.0 | 0.00 | 0.00 | 0.00 | 88 | 1010.3 |
| 20260505235003 | 65 | 125 | 16.0 | 21.0 | 0.00 | 0.00 | 0.00 | 88 | 1010.3 |
| 20260505234715 | 65 | 130 | 16.0 | 21.0 | 0.00 | 0.00 | 0.00 | 88 | 1010.3 |
| 20260505234003 | 65 | 127 | 13.0 | 23.0 | 0.00 | 0.00 | 0.00 | 89 | 1010.3 |
| 20260505233716 | 65 | 123 | 14.0 | 23.0 | 0.00 | 0.00 | 0.00 | 89 | 1010.3 |
| 20260505233003 | 65 | 128 | 16.0 | 21.0 | 0.00 | 0.00 | 0.00 | 89 | 1010.3 |
| 20260505232503 | 65 | 128 | 15.0 | 21.0 | 0.00 | 0.00 | 0.00 | 89 | 1010.3 |
| 20260505232003 | 65 | 137 | 16.0 | 24.0 | 0.00 | 0.00 | 0.00 | 89 | 1010.3 |
| 20260505231503 | 65 | 137 | 15.0 | 24.0 | 0.00 | 0.00 | 0.00 | 89 | 1010.3 |
| 20260505231003 | 65 | 129 | 14.0 | 18.0 | 0.00 | 0.00 | 0.00 | 90 | 1010.3 |
| 20260505230503 | 65 | 115 | 13.0 | 20.0 | 0.00 | 0.00 | 0.00 | 90 | 1010.3 |
| 20260505230003 | 65 | 124 | 13.0 | 24.0 | 0.00 | 0.00 | 0.00 | 90 | 1010.3 |
| 20260505225504 | 65 | 127 | 17.0 | 24.0 | 0.00 | 0.00 | 0.00 | 90 | 1010.3 |
| 20260505225218 | 65 | 126 | 17.0 | 22.0 | 0.00 | 0.00 | 0.00 | 91 | 1010.3 |
| 20260505224504 | 65 | 119 | 14.0 | 21.0 | 0.00 | 0.00 | 0.00 | 91 | 1010.3 |
| 20260505224004 | 65 | 128 | 12.0 | 21.0 | 0.00 | 0.00 | 0.00 | 91 | 1010.3 |
| 20260505223504 | 65 | 133 | 14.0 | 21.0 | 0.00 | 0.00 | 0.00 | 91 | 1010.3 |
| 20260505223004 | 65 | 125 | 15.0 | 21.0 | 0.00 | 0.00 | 0.00 | 91 | 1010.3 |
| 20260505222504 | 65 | 117 | 15.0 | 21.0 | 0.00 | 0.00 | 0.00 | 91 | 1010.3 |
| 20260505222217 | 65 | 108 | 16.0 | 21.0 | 0.00 | 0.00 | 0.00 | 91 | 1010.3 |
| 20260505221504 | 65 | 113 | 15.0 | 21.0 | 0.00 | 0.00 | 0.00 | 91 | 1010.3 |
| 20260505221004 | 65 | 114 | 14.0 | 20.0 | 0.00 | 0.00 | 0.00 | 91 | 1010.3 |
| 20260505220504 | 65 | 103 | 13.0 | 21.0 | 0.00 | 0.00 | 0.00 | 91 | 1010.3 |
| 20260505220004 | 65 | 113 | 15.0 | 21.0 | 0.00 | 0.00 | 0.00 | 91 | 1010.3 |
| 20260505215504 | 65 | 119 | 18.0 | 23.0 | 0.00 | 0.00 | 0.00 | 91 | 1010.3 |
| 20260505215004 | 65 | 120 | 17.0 | 23.0 | 0.00 | 0.00 | 0.00 | 90 | 1010.3 |
| 20260505214504 | 65 | 127 | 18.0 | 28.0 | 0.00 | 0.00 | 0.00 | 90 | 1010.3 |
| 20260505214004 | 65 | 132 | 16.0 | 28.0 | 0.00 | 0.00 | 0.00 | 90 | 1010.3 |
| 20260505213504 | 65 | 124 | 13.0 | 18.0 | 0.00 | 0.00 | 0.00 | 90 | 1010.3 |
| 20260505213004 | 65 | 117 | 15.0 | 18.0 | 0.00 | 0.00 | 0.00 | 90 | 1010.3 |
| 20260505212504 | 65 | 115 | 14.0 | 23.0 | 0.00 | 0.00 | 0.00 | 89 | 1010.3 |
| 20260505212216 | 65 | 107 | 14.0 | 23.0 | 0.00 | 0.00 | 0.00 | 89 | 1010.3 |
| 20260505211503 | 65 | 107 | 17.0 | 20.0 | 0.00 | 0.00 | 0.00 | 89 | 1010.3 |
| 20260505211217 | 65 | 110 | 16.0 | 20.0 | 0.00 | 0.00 | 0.00 | 89 | 1010.3 |
| 20260505210504 | 65 | 123 | 14.0 | 18.0 | 0.00 | 0.00 | 0.00 | 89 | 1010.3 |
| 20260505210004 | 65 | 135 | 14.0 | 20.0 | 0.00 | 0.00 | 0.00 | 89 | 1010.3 |
| 20260505205503 | 65 | 134 | 12.0 | 20.0 | 0.00 | 0.00 | 0.00 | 88 | 1011.3 |
| 20260505205214 | 65 | 134 | 12.0 | 20.0 | 0.00 | 0.00 | 0.00 | 88 | 1011.3 |
| 20260505204503 | 65 | 134 | 14.0 | 20.0 | 0.00 | 0.00 | 0.00 | 88 | 1011.3 |
| 20260505204003 | 65 | 121 | 14.0 | 21.0 | 0.00 | 0.00 | 0.00 | 88 | 1011.3 |
| 20260505203503 | 65 | 126 | 14.0 | 21.0 | 0.00 | 0.00 | 0.00 | 88 | 1011.3 |
| 20260505203004 | 65 | 124 | 13.0 | 19.0 | 0.00 | 0.00 | 0.00 | 88 | 1011.3 |
| 20260505202504 | 65 | 114 | 13.0 | 18.0 | 0.00 | 0.00 | 0.00 | 87 | 1011.3 |
| 20260505202003 | 65 | 125 | 13.0 | 21.0 | 0.00 | 0.00 | 0.00 | 87 | 1011.3 |
| 20260505201504 | 65 | 134 | 14.0 | 21.0 | 0.00 | 0.00 | 0.00 | 87 | 1011.3 |
| 20260505201003 | 65 | 123 | 14.0 | 20.0 | 0.00 | 0.00 | 0.00 | 87 | 1011.3 |
| 20260505200504 | 65 | 126 | 16.0 | 20.0 | 0.00 | 0.00 | 0.00 | 86 | 1011.3 |
| 20260505200003 | 65 | 137 | 16.0 | 20.0 | 0.00 | 0.00 | 0.00 | 86 | 1011.3 |
| 20260505195503 | 65 | 134 | 14.0 | 19.0 | 0.00 | 0.00 | 0.00 | 86 | 1011.3 |
| 20260505195003 | 65 | 117 | 12.0 | 21.0 | 0.00 | 0.00 | 0.00 | 86 | 1011.3 |
| 20260505194503 | 65 | 114 | 12.0 | 21.0 | 0.00 | 0.00 | 0.00 | 85 | 1011.3 |
| 20260505194003 | 65 | 121 | 13.0 | 21.0 | 0.00 | 0.00 | 0.00 | 85 | 1011.3 |
| 20260505193503 | 65 | 128 | 13.0 | 21.0 | 0.00 | 0.00 | 0.00 | 85 | 1011.3 |
| 20260505193003 | 65 | 137 | 12.0 | 16.0 | 0.00 | 0.00 | 0.00 | 84 | 1011.3 |
| 20260505192503 | 65 | 143 | 12.0 | 18.0 | 0.00 | 0.00 | 0.00 | 84 | 1011.3 |
| 20260505192212 | 65 | 137 | 13.0 | 19.0 | 0.00 | 0.00 | 0.00 | 84 | 1011.3 |
| 20260505191503 | 65 | 138 | 13.0 | 19.0 | 0.00 | 0.00 | 0.00 | 84 | 1011.3 |
| 20260505191003 | 65 | 133 | 12.0 | 19.0 | 0.00 | 0.00 | 0.00 | 84 | 1011.3 |
| 20260505190504 | 65 | 123 | 12.0 | 19.0 | 0.00 | 0.00 | 0.00 | 83 | 1011.3 |
| 20260505190004 | 65 | 121 | 13.0 | 19.0 | 0.00 | 0.00 | 0.00 | 83 | 1011.3 |
| 20260505185504 | 65 | 113 | 12.0 | 18.0 | 0.00 | 0.00 | 0.00 | 83 | 1010.3 |
| 20260505185004 | 65 | 114 | 11.0 | 18.0 | 0.00 | 0.00 | 0.00 | 83 | 1010.3 |
| 20260505184504 | 65 | 118 | 10.0 | 17.0 | 0.00 | 0.00 | 0.00 | 82 | 1010.3 |
| 20260505184004 | 65 | 126 | 12.0 | 18.0 | 0.00 | 0.00 | 0.00 | 82 | 1011.3 |
| 20260505183714 | 65 | 140 | 13.0 | 18.0 | 0.00 | 0.00 | 0.00 | 82 | 1011.3 |
| 20260505183004 | 65 | 148 | 13.0 | 17.0 | 0.00 | 0.00 | 0.00 | 82 | 1011.3 |
| 20260505182505 | 65 | 138 | 9.0 | 17.0 | 0.00 | 0.00 | 0.00 | 82 | 1011.3 |
| 20260505182218 | 65 | 138 | 9.0 | 13.0 | 0.00 | 0.00 | 0.00 | 82 | 1011.3 |
| 20260505181504 | 65 | 115 | 9.0 | 13.0 | 0.00 | 0.00 | 0.00 | 82 | 1011.3 |
| 20260505181004 | 65 | 115 | 9.0 | 14.0 | 0.00 | 0.00 | 0.00 | 81 | 1011.3 |
| 20260505180717 | 65 | 122 | 10.0 | 19.0 | 0.00 | 0.00 | 0.00 | 81 | 1011.3 |
| 20260505180004 | 65 | 116 | 11.0 | 19.0 | 0.00 | 0.00 | 0.00 | 81 | 1011.3 |
| 20260505175504 | 65 | 111 | 11.0 | 17.0 | 0.00 | 0.00 | 0.00 | 81 | 1011.3 |
| 20260505175004 | 65 | 109 | 11.0 | 17.0 | 0.00 | 0.00 | 0.00 | 81 | 1011.3 |
| 20260505174504 | 65 | 103 | 12.0 | 18.0 | 0.00 | 0.00 | 0.00 | 81 | 1011.3 |
| 20260505174004 | 65 | 109 | 12.0 | 18.0 | 0.00 | 0.00 | 0.00 | 81 | 1011.3 |
| 20260505173715 | 65 | 116 | 11.0 | 18.0 | 0.00 | 0.00 | 0.00 | 81 | 1011.3 |
| 20260505173004 | 65 | 119 | 12.0 | 17.0 | 0.00 | 0.00 | 0.00 | 80 | 1011.3 |
| 20260505172504 | 65 | 119 | 12.0 | 17.0 | 0.00 | 0.00 | 0.00 | 80 | 1011.3 |
| 20260505172004 | 65 | 126 | 10.0 | 16.0 | 0.00 | 0.00 | 0.00 | 80 | 1011.3 |
| 20260505171503 | 65 | 122 | 10.0 | 15.0 | 0.00 | 0.00 | 0.00 | 79 | 1011.3 |
| 20260505171004 | 65 | 125 | 10.0 | 15.0 | 0.00 | 0.00 | 0.00 | 79 | 1011.3 |
| 20260505170503 | 65 | 117 | 10.0 | 13.0 | 0.00 | 0.00 | 0.00 | 79 | 1011.3 |
| 20260505170216 | 65 | 116 | 11.0 | 16.0 | 0.00 | 0.00 | 0.00 | 79 | 1011.3 |
| 20260505165503 | 66 | 113 | 12.0 | 17.0 | 0.00 | 0.00 | 0.00 | 79 | 1011.3 |
| 20260505165004 | 66 | 111 | 12.0 | 17.0 | 0.00 | 0.00 | 0.00 | 79 | 1011.3 |
| 20260505164504 | 66 | 118 | 11.0 | 16.0 | 0.00 | 0.00 | 0.00 | 79 | 1011.3 |
| 20260505164003 | 66 | 115 | 10.0 | 14.0 | 0.00 | 0.00 | 0.00 | 78 | 1011.3 |
| 20260505163503 | 66 | 109 | 10.0 | 14.0 | 0.00 | 0.00 | 0.00 | 77 | 1011.3 |
| 20260505163003 | 66 | 110 | 10.0 | 14.0 | 0.00 | 0.00 | 0.00 | 77 | 1011.3 |
| 20260505162503 | 67 | 122 | 10.0 | 14.0 | 0.00 | 0.00 | 0.00 | 77 | 1011.3 |
| 20260505162003 | 67 | 132 | 9.0 | 14.0 | 0.00 | 0.00 | 0.00 | 77 | 1011.3 |
| 20260505161504 | 67 | 127 | 9.0 | 12.0 | 0.00 | 0.00 | 0.00 | 77 | 1011.3 |
| 20260505161003 | 67 | 123 | 9.0 | 12.0 | 0.00 | 0.00 | 0.00 | 77 | 1011.3 |
| 20260505160713 | 67 | 130 | 9.0 | 12.0 | 0.00 | 0.00 | 0.00 | 77 | 1011.3 |